Location: Plum Point
(34.9795°N, 89.9548°W)
Time: 14:44:01
(UTC+00:00)

BlueWalker 3 - Visible Passes

Search period start: 13 October 2024 00:00
Search period end: 23 October 2024 00:00
Orbit: 472 x 484 km, 53.2° (Epoch: 12 October)

Date Brightness Start Highest point End Pass type
(mag) Time Alt. Az. Time Alt. Az. Time Alt. Az.
19 Oct 4.3 11:16:04 10° NNW 11:18:37 17° NNE 11:21:10 10° ENE visible
20 Oct 4.4 10:47:33 10° N 10:49:53 16° NNE 10:52:13 10° ENE visible
21 Oct 4.4 10:19:45 12° N 10:21:07 14° NNE 10:23:13 10° ENE visible
22 Oct 4.7 09:52:35 13° NNE 09:52:35 13° NNE 09:54:07 10° ENE visible
22 Oct 1.8 11:27:03 10° NW 11:30:45 87° NE 11:34:25 10° SE visible
